﻿_id,filename,timestamp,value,label
1,irradiance_poa_o_938,2016-06-20T00:00:00,0.00024195191477347774,0
2,irradiance_poa_o_938,2016-06-21T00:00:00,0.0,0
3,irradiance_poa_o_938,2016-06-22T00:00:00,0.0,0
4,irradiance_poa_o_938,2016-06-23T00:00:00,0.0,0
5,irradiance_poa_o_938,2016-06-24T00:00:00,0.0,0
6,irradiance_poa_o_938,2016-06-25T00:00:00,0.0,0
7,irradiance_poa_o_938,2016-06-26T00:00:00,0.0,0
8,irradiance_poa_o_938,2016-06-27T00:00:00,0.0,0
9,irradiance_poa_o_938,2016-06-28T00:00:00,0.0,0
10,irradiance_poa_o_938,2016-06-29T00:00:00,0.0,0
11,irradiance_poa_o_938,2016-06-30T00:00:00,0.0,0
12,irradiance_poa_o_938,2016-07-01T00:00:00,0.0,0
13,irradiance_poa_o_938,2016-07-02T00:00:00,0.0,0
14,irradiance_poa_o_938,2016-07-03T00:00:00,0.0,0
15,irradiance_poa_o_938,2016-07-04T00:00:00,0.0,0
16,irradiance_poa_o_938,2016-07-05T00:00:00,0.0,0
17,irradiance_poa_o_938,2016-07-06T00:00:00,0.0,0
18,irradiance_poa_o_938,2016-07-07T00:00:00,0.0,0
19,irradiance_poa_o_938,2016-07-08T00:00:00,0.0,0
20,irradiance_poa_o_938,2016-07-09T00:00:00,0.0,0
21,irradiance_poa_o_938,2016-07-10T00:00:00,0.0,0
22,irradiance_poa_o_938,2016-07-11T00:00:00,0.0,0
23,irradiance_poa_o_938,2016-07-12T00:00:00,0.0,0
24,irradiance_poa_o_938,2016-07-13T00:00:00,0.0,0
25,irradiance_poa_o_938,2016-07-14T00:00:00,0.0,0
26,irradiance_poa_o_938,2016-07-15T00:00:00,0.0,0
27,irradiance_poa_o_938,2016-07-16T00:00:00,0.0,0
28,irradiance_poa_o_938,2016-07-17T00:00:00,0.0,0
29,irradiance_poa_o_938,2016-07-18T00:00:00,0.0,0
30,irradiance_poa_o_938,2016-07-19T00:00:00,0.0,0
31,irradiance_poa_o_938,2016-07-20T00:00:00,0.0,0
32,irradiance_poa_o_938,2016-07-21T00:00:00,0.0,0
33,irradiance_poa_o_938,2016-07-22T00:00:00,0.0,0
34,irradiance_poa_o_938,2016-07-23T00:00:00,0.0,0
35,irradiance_poa_o_938,2016-07-24T00:00:00,0.0,0
36,irradiance_poa_o_938,2016-07-25T00:00:00,0.0,0
37,irradiance_poa_o_938,2016-07-26T00:00:00,0.0,0
38,irradiance_poa_o_938,2016-07-27T00:00:00,0.0,0
39,irradiance_poa_o_938,2016-07-28T00:00:00,0.0,0
40,irradiance_poa_o_938,2016-07-29T00:00:00,0.0,0
41,irradiance_poa_o_938,2016-07-30T00:00:00,0.0,0
42,irradiance_poa_o_938,2016-07-31T00:00:00,0.0,0
43,irradiance_poa_o_938,2016-08-01T00:00:00,0.0,0
44,irradiance_poa_o_938,2016-08-02T00:00:00,0.0,0
45,irradiance_poa_o_938,2016-08-03T00:00:00,0.0,0
46,irradiance_poa_o_938,2016-08-04T00:00:00,0.0,0
47,irradiance_poa_o_938,2016-08-05T00:00:00,0.0,0
48,irradiance_poa_o_938,2016-08-06T00:00:00,0.0,0
49,irradiance_poa_o_938,2016-08-07T00:00:00,0.0,0
50,irradiance_poa_o_938,2016-08-08T00:00:00,0.0,0
51,irradiance_poa_o_938,2016-08-09T00:00:00,0.0,0
52,irradiance_poa_o_938,2016-08-10T00:00:00,0.0,0
53,irradiance_poa_o_938,2016-08-11T00:00:00,0.7696779415031756,0
54,irradiance_poa_o_938,2016-08-12T00:00:00,0.8712406211760458,0
55,irradiance_poa_o_938,2016-08-13T00:00:00,0.8705511960560252,0
56,irradiance_poa_o_938,2016-08-14T00:00:00,0.8756889568137953,0
57,irradiance_poa_o_938,2016-08-15T00:00:00,0.9035435975847705,0
58,irradiance_poa_o_938,2016-08-16T00:00:00,0.9076848203766738,0
59,irradiance_poa_o_938,2016-08-17T00:00:00,0.9103391307107037,0
60,irradiance_poa_o_938,2016-08-18T00:00:00,0.8777568225894633,0
61,irradiance_poa_o_938,2016-08-19T00:00:00,0.8468561256896461,0
62,irradiance_poa_o_938,2016-08-20T00:00:00,0.7999175430317095,0
63,irradiance_poa_o_938,2016-08-21T00:00:00,0.8012082809142566,0
64,irradiance_poa_o_938,2016-08-22T00:00:00,0.7586448435123159,0
65,irradiance_poa_o_938,2016-08-23T00:00:00,0.7822476130302868,0
66,irradiance_poa_o_938,2016-08-24T00:00:00,0.773243229415523,0
67,irradiance_poa_o_938,2016-08-25T00:00:00,0.7621359769088585,0
68,irradiance_poa_o_938,2016-08-26T00:00:00,0.2824771978600055,0
69,irradiance_poa_o_938,2016-08-27T00:00:00,0.0,0
70,irradiance_poa_o_938,2016-08-28T00:00:00,0.0,0
71,irradiance_poa_o_938,2016-08-29T00:00:00,0.0,0
72,irradiance_poa_o_938,2016-08-30T00:00:00,0.0,0
73,irradiance_poa_o_938,2016-08-31T00:00:00,0.18880408816749178,0
74,irradiance_poa_o_938,2016-09-01T00:00:00,0.7977884575897978,0
75,irradiance_poa_o_938,2016-09-02T00:00:00,0.7979123341008795,0
76,irradiance_poa_o_938,2016-09-03T00:00:00,0.7636646340337879,0
77,irradiance_poa_o_938,2016-09-04T00:00:00,0.67128528590613,0
78,irradiance_poa_o_938,2016-09-05T00:00:00,0.7396228711870947,0
79,irradiance_poa_o_938,2016-09-06T00:00:00,0.7579165546222135,0
80,irradiance_poa_o_938,2016-09-07T00:00:00,0.7500620784673482,0
81,irradiance_poa_o_938,2016-09-08T00:00:00,0.726529550250829,0
82,irradiance_poa_o_938,2016-09-09T00:00:00,0.7254422859506601,0
83,irradiance_poa_o_938,2016-09-10T00:00:00,0.7352499363788698,0
84,irradiance_poa_o_938,2016-09-11T00:00:00,0.7389858720217735,0
85,irradiance_poa_o_938,2016-09-12T00:00:00,0.6966381105957061,0
86,irradiance_poa_o_938,2016-09-13T00:00:00,0.6049392530289048,0
87,irradiance_poa_o_938,2016-09-14T00:00:00,0.7148123275156416,0
88,irradiance_poa_o_938,2016-09-15T00:00:00,0.7100326247812478,0
89,irradiance_poa_o_938,2016-09-16T00:00:00,0.697474398364599,0
90,irradiance_poa_o_938,2016-09-17T00:00:00,0.6996494586253418,0
91,irradiance_poa_o_938,2016-09-18T00:00:00,0.696448513592117,0
92,irradiance_poa_o_938,2016-09-19T00:00:00,0.48688437227652304,0
93,irradiance_poa_o_938,2016-09-20T00:00:00,0.5626708342280039,0
94,irradiance_poa_o_938,2016-09-21T00:00:00,0.6042940111895891,0
95,irradiance_poa_o_938,2016-09-22T00:00:00,0.6048936939709327,0
96,irradiance_poa_o_938,2016-09-23T00:00:00,0.6722106241285305,0
97,irradiance_poa_o_938,2016-09-24T00:00:00,0.6662064247648584,0
98,irradiance_poa_o_938,2016-09-25T00:00:00,0.659926642318402,0
99,irradiance_poa_o_938,2016-09-26T00:00:00,0.6554325293875892,0
100,irradiance_poa_o_938,2016-09-27T00:00:00,0.5447075943263744,0
101,irradiance_poa_o_938,2016-09-28T00:00:00,0.6122287968891368,0
102,irradiance_poa_o_938,2016-09-29T00:00:00,0.5875145068824849,0
103,irradiance_poa_o_938,2016-09-30T00:00:00,0.6107565616494465,0
104,irradiance_poa_o_938,2016-10-01T00:00:00,0.6146653931350022,0
105,irradiance_poa_o_938,2016-10-02T00:00:00,0.6163605217313964,0
106,irradiance_poa_o_938,2016-10-03T00:00:00,0.6087391313112983,0
107,irradiance_poa_o_938,2016-10-04T00:00:00,0.5959389106387561,0
108,irradiance_poa_o_938,2016-10-05T00:00:00,0.5929728753351418,0
109,irradiance_poa_o_938,2016-10-06T00:00:00,0.5971520212578632,0
110,irradiance_poa_o_938,2016-10-07T00:00:00,0.5312290585407793,0
111,irradiance_poa_o_938,2016-10-08T00:00:00,0.5737582497461982,0
112,irradiance_poa_o_938,2016-10-09T00:00:00,0.5632092099037386,0
113,irradiance_poa_o_938,2016-10-10T00:00:00,0.5452259660068736,0
114,irradiance_poa_o_938,2016-10-11T00:00:00,0.5455572632246901,0
115,irradiance_poa_o_938,2016-10-12T00:00:00,0.5374093960278249,0
116,irradiance_poa_o_938,2016-10-13T00:00:00,0.49998553853421174,0
117,irradiance_poa_o_938,2016-10-14T00:00:00,0.5270571318154957,0
118,irradiance_poa_o_938,2016-10-15T00:00:00,0.5131718970137022,0
119,irradiance_poa_o_938,2016-10-16T00:00:00,0.47873343573995203,0
120,irradiance_poa_o_938,2016-10-17T00:00:00,0.38749509054760256,0
121,irradiance_poa_o_938,2016-10-18T00:00:00,0.5292032859785561,0
122,irradiance_poa_o_938,2016-10-19T00:00:00,0.5225460478970072,0
123,irradiance_poa_o_938,2016-10-20T00:00:00,0.5266014517375875,0
124,irradiance_poa_o_938,2016-10-21T00:00:00,0.5146212288317883,0
125,irradiance_poa_o_938,2016-10-22T00:00:00,0.49829029331162844,0
126,irradiance_poa_o_938,2016-10-23T00:00:00,0.21750104893358324,0
127,irradiance_poa_o_938,2016-10-24T00:00:00,0.38070654106569307,0
128,irradiance_poa_o_938,2016-10-25T00:00:00,0.4875162380729163,0
129,irradiance_poa_o_938,2016-10-26T00:00:00,0.48519035677597944,0
130,irradiance_poa_o_938,2016-10-27T00:00:00,0.2948700666276832,0
131,irradiance_poa_o_938,2016-10-28T00:00:00,0.2407170157663313,0
132,irradiance_poa_o_938,2016-10-29T00:00:00,0.24851706672960228,0
133,irradiance_poa_o_938,2016-10-30T00:00:00,0.12309155542770021,0
134,irradiance_poa_o_938,2016-10-31T00:00:00,0.4736741625908425,0
135,irradiance_poa_o_938,2016-11-01T00:00:00,0.4600081976197112,0
136,irradiance_poa_o_938,2016-11-02T00:00:00,0.5117482884761897,0
137,irradiance_poa_o_938,2016-11-03T00:00:00,0.500627779943792,0
138,irradiance_poa_o_938,2016-11-04T00:00:00,0.4812343608360207,0
139,irradiance_poa_o_938,2016-11-05T00:00:00,0.48372719645864437,0
140,irradiance_poa_o_938,2016-11-06T00:00:00,0.4450671158933723,0
141,irradiance_poa_o_938,2016-11-07T00:00:00,0.44588387658700135,0
142,irradiance_poa_o_938,2016-11-08T00:00:00,0.46290600212173416,0
143,irradiance_poa_o_938,2016-11-09T00:00:00,0.4562811241138936,0
144,irradiance_poa_o_938,2016-11-10T00:00:00,0.4537055266478303,0
145,irradiance_poa_o_938,2016-11-11T00:00:00,0.45017303903369543,0
146,irradiance_poa_o_938,2016-11-12T00:00:00,0.30283565544737023,0
147,irradiance_poa_o_938,2016-11-13T00:00:00,0.44084196330063835,0
148,irradiance_poa_o_938,2016-11-14T00:00:00,0.4350908828537929,0
149,irradiance_poa_o_938,2016-11-15T00:00:00,0.37854599646618997,0
150,irradiance_poa_o_938,2016-11-16T00:00:00,0.36291702562186196,0
151,irradiance_poa_o_938,2016-11-17T00:00:00,0.4301043639795761,0
152,irradiance_poa_o_938,2016-11-18T00:00:00,0.4259164123557022,0
153,irradiance_poa_o_938,2016-11-19T00:00:00,0.41956791903889695,0
154,irradiance_poa_o_938,2016-11-20T00:00:00,0.27004752474939653,0
155,irradiance_poa_o_938,2016-11-21T00:00:00,0.3606499428169503,0
156,irradiance_poa_o_938,2016-11-22T00:00:00,0.41353158243867927,0
157,irradiance_poa_o_938,2016-11-23T00:00:00,0.40038330876805717,0
158,irradiance_poa_o_938,2016-11-24T00:00:00,0.40671192755317453,0
159,irradiance_poa_o_938,2016-11-25T00:00:00,0.4090355463262641,0
160,irradiance_poa_o_938,2016-11-26T00:00:00,0.284998476950984,0
161,irradiance_poa_o_938,2016-11-27T00:00:00,0.18286618576637922,0
162,irradiance_poa_o_938,2016-11-28T00:00:00,0.34776133983906804,0
163,irradiance_poa_o_938,2016-11-29T00:00:00,0.4023758098041322,0
164,irradiance_poa_o_938,2016-11-30T00:00:00,0.3949111881136581,0
165,irradiance_poa_o_938,2016-12-01T00:00:00,0.36680073367057714,0
166,irradiance_poa_o_938,2016-12-02T00:00:00,0.39400699689581065,0
167,irradiance_poa_o_938,2016-12-03T00:00:00,0.3904405417527148,0
168,irradiance_poa_o_938,2016-12-04T00:00:00,0.3758244436860508,0
169,irradiance_poa_o_938,2016-12-05T00:00:00,0.33262645917533185,0
170,irradiance_poa_o_938,2016-12-06T00:00:00,0.2361775936216046,0
171,irradiance_poa_o_938,2016-12-07T00:00:00,0.33381373158317657,0
172,irradiance_poa_o_938,2016-12-08T00:00:00,0.34159552406861976,0
173,irradiance_poa_o_938,2016-12-09T00:00:00,0.31929588532824393,0
174,irradiance_poa_o_938,2016-12-10T00:00:00,0.3342923807227665,0
175,irradiance_poa_o_938,2016-12-11T00:00:00,0.3245595189274191,0
176,irradiance_poa_o_938,2016-12-12T00:00:00,0.3018205799727931,0
177,irradiance_poa_o_938,2016-12-13T00:00:00,0.288268404619011,0
178,irradiance_poa_o_938,2016-12-14T00:00:00,0.3262891623360021,0
179,irradiance_poa_o_938,2016-12-15T00:00:00,0.14251903846572686,0
180,irradiance_poa_o_938,2016-12-16T00:00:00,0.2769723992256192,0
181,irradiance_poa_o_938,2016-12-17T00:00:00,0.37631323797191424,0
182,irradiance_poa_o_938,2016-12-18T00:00:00,0.37553668364227377,0
183,irradiance_poa_o_938,2016-12-19T00:00:00,0.381405824550247,0
184,irradiance_poa_o_938,2016-12-20T00:00:00,0.3683026148515524,0
185,irradiance_poa_o_938,2016-12-21T00:00:00,0.09577798325902073,0
186,irradiance_poa_o_938,2016-12-22T00:00:00,0.23996592966559843,0
187,irradiance_poa_o_938,2016-12-23T00:00:00,0.12861391738485148,0
188,irradiance_poa_o_938,2016-12-24T00:00:00,0.35056602323393005,0
189,irradiance_poa_o_938,2016-12-25T00:00:00,0.35870928908559396,0
190,irradiance_poa_o_938,2016-12-26T00:00:00,0.2473798118184896,0
191,irradiance_poa_o_938,2016-12-27T00:00:00,0.36938016962787995,0
192,irradiance_poa_o_938,2016-12-28T00:00:00,0.37175272816513993,0
193,irradiance_poa_o_938,2016-12-29T00:00:00,0.36514201254897144,0
194,irradiance_poa_o_938,2016-12-30T00:00:00,0.18599072356963134,0
195,irradiance_poa_o_938,2016-12-31T00:00:00,0.05375271395515313,0
196,irradiance_poa_o_938,2017-01-01T00:00:00,0.3665500375023622,0
197,irradiance_poa_o_938,2017-01-02T00:00:00,0.0966409004685438,0
198,irradiance_poa_o_938,2017-01-03T00:00:00,0.20406622629072219,0
199,irradiance_poa_o_938,2017-01-04T00:00:00,0.26398331763876864,0
200,irradiance_poa_o_938,2017-01-05T00:00:00,0.2096971897558612,0
201,irradiance_poa_o_938,2017-01-06T00:00:00,0.3815330868540274,0
202,irradiance_poa_o_938,2017-01-07T00:00:00,0.1735153177333916,0
203,irradiance_poa_o_938,2017-01-08T00:00:00,0.36680532096734864,0
204,irradiance_poa_o_938,2017-01-09T00:00:00,0.2777577603463765,0
205,irradiance_poa_o_938,2017-01-10T00:00:00,0.17926428001611716,0
206,irradiance_poa_o_938,2017-01-11T00:00:00,0.39397385834531745,0
207,irradiance_poa_o_938,2017-01-12T00:00:00,0.08022938921017761,0
208,irradiance_poa_o_938,2017-01-13T00:00:00,0.3579878113829282,0
209,irradiance_poa_o_938,2017-01-14T00:00:00,0.40307808136549184,0
210,irradiance_poa_o_938,2017-01-15T00:00:00,0.3364653994802178,0
211,irradiance_poa_o_938,2017-01-16T00:00:00,0.41728580719952063,0
212,irradiance_poa_o_938,2017-01-17T00:00:00,0.4211123932425407,0
213,irradiance_poa_o_938,2017-01-18T00:00:00,0.27313240419853085,0
214,irradiance_poa_o_938,2017-01-19T00:00:00,0.2973785169589673,0
215,irradiance_poa_o_938,2017-01-20T00:00:00,0.11240800916017017,0
216,irradiance_poa_o_938,2017-01-21T00:00:00,0.40793723039277563,0
217,irradiance_poa_o_938,2017-01-22T00:00:00,0.09707521579123658,0
218,irradiance_poa_o_938,2017-01-23T00:00:00,0.22851529671706167,0
219,irradiance_poa_o_938,2017-01-24T00:00:00,0.3889984525057473,0
220,irradiance_poa_o_938,2017-01-25T00:00:00,0.45012943440297126,0
221,irradiance_poa_o_938,2017-01-26T00:00:00,0.4406546536478629,0
222,irradiance_poa_o_938,2017-01-27T00:00:00,0.46613919605230036,0
223,irradiance_poa_o_938,2017-01-28T00:00:00,0.47772276529588,0
224,irradiance_poa_o_938,2017-01-29T00:00:00,0.4771955824644063,0
225,irradiance_poa_o_938,2017-01-30T00:00:00,0.48241046813314264,0
226,irradiance_poa_o_938,2017-01-31T00:00:00,0.4810603294926946,0
227,irradiance_poa_o_938,2017-02-01T00:00:00,0.45929322639888315,0
228,irradiance_poa_o_938,2017-02-02T00:00:00,0.31566565927560253,0
229,irradiance_poa_o_938,2017-02-03T00:00:00,0.2513169157690991,0
230,irradiance_poa_o_938,2017-02-04T00:00:00,0.3883443290310937,0
231,irradiance_poa_o_938,2017-02-05T00:00:00,0.2467084386885994,0
232,irradiance_poa_o_938,2017-02-06T00:00:00,0.2633076429038828,0
233,irradiance_poa_o_938,2017-02-07T00:00:00,0.29838935307762576,0
234,irradiance_poa_o_938,2017-02-08T00:00:00,0.37967840588007923,0
235,irradiance_poa_o_938,2017-02-09T00:00:00,0.47703169687288943,0
236,irradiance_poa_o_938,2017-02-10T00:00:00,0.1261533355038553,0
237,irradiance_poa_o_938,2017-02-11T00:00:00,0.33422902726958,0
238,irradiance_poa_o_938,2017-02-12T00:00:00,0.5247757875532602,0
239,irradiance_poa_o_938,2017-02-13T00:00:00,0.5202240368213842,0
240,irradiance_poa_o_938,2017-02-14T00:00:00,0.5573684792807599,0
241,irradiance_poa_o_938,2017-02-15T00:00:00,0.5245117860687005,0
242,irradiance_poa_o_938,2017-02-16T00:00:00,0.4160220598628042,0
243,irradiance_poa_o_938,2017-02-17T00:00:00,0.04029260574930463,0
244,irradiance_poa_o_938,2017-02-18T00:00:00,0.28014720691291184,0
245,irradiance_poa_o_938,2017-02-19T00:00:00,0.23353847327344662,0
246,irradiance_poa_o_938,2017-02-20T00:00:00,0.2793744541368291,0
247,irradiance_poa_o_938,2017-02-21T00:00:00,0.2338755933232176,0
248,irradiance_poa_o_938,2017-02-22T00:00:00,0.4446720283888655,0
249,irradiance_poa_o_938,2017-02-23T00:00:00,0.6006377312338445,0
250,irradiance_poa_o_938,2017-02-24T00:00:00,0.6175633224985009,0
251,irradiance_poa_o_938,2017-02-25T00:00:00,0.4931286699635957,0
252,irradiance_poa_o_938,2017-02-26T00:00:00,0.3146103764681794,0
253,irradiance_poa_o_938,2017-02-27T00:00:00,0.1571558186065804,0
254,irradiance_poa_o_938,2017-02-28T00:00:00,0.6211365726006747,0
255,irradiance_poa_o_938,2017-03-01T00:00:00,0.647911523597308,0
256,irradiance_poa_o_938,2017-03-02T00:00:00,0.6292185577480892,0
257,irradiance_poa_o_938,2017-03-03T00:00:00,0.64059820410175,0
258,irradiance_poa_o_938,2017-03-04T00:00:00,0.5340200217061878,0
259,irradiance_poa_o_938,2017-03-05T00:00:00,0.30852207254605374,0
260,irradiance_poa_o_938,2017-03-06T00:00:00,0.6785846943073602,0
261,irradiance_poa_o_938,2017-03-07T00:00:00,0.6450299082151759,0
262,irradiance_poa_o_938,2017-03-08T00:00:00,0.667006674556889,0
263,irradiance_poa_o_938,2017-03-09T00:00:00,0.6868935928423415,0
264,irradiance_poa_o_938,2017-03-10T00:00:00,0.5742419953170342,0
265,irradiance_poa_o_938,2017-03-11T00:00:00,0.6839250027833179,0
266,irradiance_poa_o_938,2017-03-12T00:00:00,0.7012992658971067,0
267,irradiance_poa_o_938,2017-03-13T00:00:00,0.7032595091950181,0
268,irradiance_poa_o_938,2017-03-14T00:00:00,0.6764819396195053,0
269,irradiance_poa_o_938,2017-03-15T00:00:00,0.6904334733215729,0
270,irradiance_poa_o_938,2017-03-16T00:00:00,0.6961083163306752,0
271,irradiance_poa_o_938,2017-03-17T00:00:00,0.6423371103909911,0
272,irradiance_poa_o_938,2017-03-18T00:00:00,0.6670378618289202,0
273,irradiance_poa_o_938,2017-03-19T00:00:00,0.7127220584909145,0
274,irradiance_poa_o_938,2017-03-20T00:00:00,0.6365249133400896,0
275,irradiance_poa_o_938,2017-03-21T00:00:00,0.19104198330058858,0
276,irradiance_poa_o_938,2017-03-22T00:00:00,0.4899870090620827,0
277,irradiance_poa_o_938,2017-03-23T00:00:00,0.7606397378679642,0
278,irradiance_poa_o_938,2017-03-24T00:00:00,0.7552509407519841,0
279,irradiance_poa_o_938,2017-03-25T00:00:00,0.574441525044949,0
280,irradiance_poa_o_938,2017-03-26T00:00:00,0.6970052710327619,0
281,irradiance_poa_o_938,2017-03-27T00:00:00,0.7834605176461252,0
282,irradiance_poa_o_938,2017-03-28T00:00:00,0.7954505451448814,0
283,irradiance_poa_o_938,2017-03-29T00:00:00,0.7972860088356654,0
284,irradiance_poa_o_938,2017-03-30T00:00:00,0.7657292536533055,0
285,irradiance_poa_o_938,2017-03-31T00:00:00,0.8102640270418023,0
286,irradiance_poa_o_938,2017-04-01T00:00:00,0.8123713385074258,0
287,irradiance_poa_o_938,2017-04-02T00:00:00,0.8082698158516085,0
288,irradiance_poa_o_938,2017-04-03T00:00:00,0.8060807439776001,0
289,irradiance_poa_o_938,2017-04-04T00:00:00,0.8097490668287183,0
290,irradiance_poa_o_938,2017-04-05T00:00:00,0.7651221736470081,0
291,irradiance_poa_o_938,2017-04-06T00:00:00,0.6347017927693136,0
292,irradiance_poa_o_938,2017-04-07T00:00:00,0.7553264578443765,0
293,irradiance_poa_o_938,2017-04-08T00:00:00,0.7090692207638022,0
294,irradiance_poa_o_938,2017-04-09T00:00:00,0.7392274700150595,0
295,irradiance_poa_o_938,2017-04-10T00:00:00,0.835199248832588,0
296,irradiance_poa_o_938,2017-04-11T00:00:00,0.7575490386145542,0
297,irradiance_poa_o_938,2017-04-12T00:00:00,0.8315261682869329,0
298,irradiance_poa_o_938,2017-04-13T00:00:00,0.78801532439592,0
299,irradiance_poa_o_938,2017-04-14T00:00:00,0.8616426612448473,0
300,irradiance_poa_o_938,2017-04-15T00:00:00,0.865825650139773,0
301,irradiance_poa_o_938,2017-04-16T00:00:00,0.8461797220108015,0
302,irradiance_poa_o_938,2017-04-17T00:00:00,0.5800016261711519,0
303,irradiance_poa_o_938,2017-04-18T00:00:00,0.5447481682505748,0
304,irradiance_poa_o_938,2017-04-19T00:00:00,0.8735571963570707,0
305,irradiance_poa_o_938,2017-04-20T00:00:00,0.8904873596589972,0
306,irradiance_poa_o_938,2017-04-21T00:00:00,0.8879290510868884,0
307,irradiance_poa_o_938,2017-04-22T00:00:00,0.8804201928285615,0
308,irradiance_poa_o_938,2017-04-23T00:00:00,0.8765883112541346,0
309,irradiance_poa_o_938,2017-04-24T00:00:00,0.814365824005323,0
310,irradiance_poa_o_938,2017-04-25T00:00:00,0.7169453895109483,0
311,irradiance_poa_o_938,2017-04-26T00:00:00,0.6428223064622081,0
312,irradiance_poa_o_938,2017-04-27T00:00:00,0.7500731084224873,0
313,irradiance_poa_o_938,2017-04-28T00:00:00,0.9377167614063083,0
314,irradiance_poa_o_938,2017-04-29T00:00:00,0.9435962105918914,0
315,irradiance_poa_o_938,2017-04-30T00:00:00,0.9376369577262075,0
316,irradiance_poa_o_938,2017-05-01T00:00:00,0.9222166840580153,0
317,irradiance_poa_o_938,2017-05-02T00:00:00,0.9004358257347829,0
318,irradiance_poa_o_938,2017-05-03T00:00:00,0.870232651905932,0
319,irradiance_poa_o_938,2017-05-04T00:00:00,0.9065868533528955,0
320,irradiance_poa_o_938,2017-05-05T00:00:00,0.8648075377822072,0
321,irradiance_poa_o_938,2017-05-06T00:00:00,0.26567772855416943,0
322,irradiance_poa_o_938,2017-05-07T00:00:00,0.7397471037532085,0
323,irradiance_poa_o_938,2017-05-08T00:00:00,0.8426324693757973,0
324,irradiance_poa_o_938,2017-05-09T00:00:00,0.8399961582291787,0
325,irradiance_poa_o_938,2017-05-10T00:00:00,0.26660359322936733,0
326,irradiance_poa_o_938,2017-05-11T00:00:00,0.9187108124052844,0
327,irradiance_poa_o_938,2017-05-12T00:00:00,0.9710287527243129,0
328,irradiance_poa_o_938,2017-05-13T00:00:00,0.9877442224715977,0
329,irradiance_poa_o_938,2017-05-14T00:00:00,0.9765339833479169,0
330,irradiance_poa_o_938,2017-05-15T00:00:00,0.35285086410191,0
331,irradiance_poa_o_938,2017-05-16T00:00:00,0.916980830138885,0
332,irradiance_poa_o_938,2017-05-17T00:00:00,0.9254752467885158,0
333,irradiance_poa_o_938,2017-05-18T00:00:00,0.9932402210968678,0
334,irradiance_poa_o_938,2017-05-19T00:00:00,1.0,0
335,irradiance_poa_o_938,2017-05-20T00:00:00,0.9892718966908669,0
336,irradiance_poa_o_938,2017-05-21T00:00:00,0.9791690297725283,0
337,irradiance_poa_o_938,2017-05-22T00:00:00,0.9765932520990201,0
338,irradiance_poa_o_938,2017-05-23T00:00:00,0.9797503184360317,0
339,irradiance_poa_o_938,2017-05-24T00:00:00,0.9609032713460387,0
340,irradiance_poa_o_938,2017-05-25T00:00:00,0.7503099047593397,0
341,irradiance_poa_o_938,2017-05-26T00:00:00,0.6197642606936524,0
342,irradiance_poa_o_938,2017-05-27T00:00:00,0.9405819288625621,0
343,irradiance_poa_o_938,2017-05-28T00:00:00,0.975362621392402,0
344,irradiance_poa_o_938,2017-05-29T00:00:00,0.9188995224200792,0
345,irradiance_poa_o_938,2017-05-30T00:00:00,0.9218999508231929,0
346,irradiance_poa_o_938,2017-05-31T00:00:00,0.6323690786067596,0
347,irradiance_poa_o_938,2017-06-01T00:00:00,0.9377097981082866,0
348,irradiance_poa_o_938,2017-06-02T00:00:00,0.9676804204060256,0
349,irradiance_poa_o_938,2017-06-03T00:00:00,0.9603112827443901,0
350,irradiance_poa_o_938,2017-06-04T00:00:00,0.9761277687603336,0
351,irradiance_poa_o_938,2017-06-05T00:00:00,0.984583839251858,0
352,irradiance_poa_o_938,2017-06-06T00:00:00,0.9445791866153549,0
353,irradiance_poa_o_938,2017-06-07T00:00:00,0.8894284479968178,0
354,irradiance_poa_o_938,2017-06-08T00:00:00,0.9312428615106404,0
355,irradiance_poa_o_938,2017-06-09T00:00:00,0.9292685714783887,0
356,irradiance_poa_o_938,2017-06-10T00:00:00,0.5739969354757569,0
357,irradiance_poa_o_938,2017-06-11T00:00:00,0.5818333356612753,0
358,irradiance_poa_o_938,2017-06-12T00:00:00,0.9310611006243303,0
359,irradiance_poa_o_938,2017-06-13T00:00:00,0.9870611855117254,0
360,irradiance_poa_o_938,2017-06-14T00:00:00,0.9822201733706869,0
361,irradiance_poa_o_938,2017-06-15T00:00:00,0.9850086430609059,0
362,irradiance_poa_o_938,2017-06-16T00:00:00,0.9863010256997088,0
363,irradiance_poa_o_938,2017-06-17T00:00:00,0.9650910087313574,0
364,irradiance_poa_o_938,2017-06-18T00:00:00,0.9503774921912872,0
365,irradiance_poa_o_938,2017-06-19T00:00:00,0.9526432303434703,0
366,irradiance_poa_o_938,2017-06-20T00:00:00,0.9649076975523718,0
367,irradiance_poa_o_938,2017-06-21T00:00:00,0.9613822933745553,0
368,irradiance_poa_o_938,2017-06-22T00:00:00,0.9554878792201921,0
369,irradiance_poa_o_938,2017-06-23T00:00:00,0.9427253113673009,0
370,irradiance_poa_o_938,2017-06-24T00:00:00,0.7974469905198485,0
371,irradiance_poa_o_938,2017-06-25T00:00:00,0.9664159830007469,0
372,irradiance_poa_o_938,2017-06-26T00:00:00,0.9754646244982225,0
373,irradiance_poa_o_938,2017-06-27T00:00:00,0.9870223350634306,0
374,irradiance_poa_o_938,2017-06-28T00:00:00,0.9690098922317856,0
375,irradiance_poa_o_938,2017-06-29T00:00:00,0.9395641654147064,0
376,irradiance_poa_o_938,2017-06-30T00:00:00,0.9435503926068244,0